#timestamp,LO_Frequency,Hit,StdDev 
1679443215.7,286046996.5,N
1679443235.6,286046997.3,N
1679443255.4,286046994.9,N
1679443275.2,286046998.0,N
1679443295.1,286046996.5,N
1679443296.0,286046996.5,N
1679443315.8,286046999.4,N
1679443335.7,286046998.3,N
1679443355.5,286047001.1,N
1679443375.3,286046999.6,N
1679443395.2,286046997.8,N
1679443415.0,286046995.2,N
1679443415.9,286046995.2,N
1679443435.7,286046996.1,N
1679443455.6,286046997.1,N
1679443475.4,286046997.7,N
1679443495.3,286046996.5,N
1679443515.1,286047000.8,N
1679443516.0,286047000.8,N
1679443535.8,286046998.4,N
1679443555.7,286046999.4,N
1679443575.5,286046998.7,N
1679443595.4,286046996.7,N
1679443615.2,286046997.5,N
1679443635.0,286046997.9,N
1679443635.9,286046997.9,N
1679443655.8,286046995.2,N
1679443675.6,286046997.3,N
1679443695.5,286046999.4,N
1679443715.3,286046998.3,N
1679443735.1,286047000.5,N
1679443755.9,286047002.0,N
1679443775.7,286047002.8,N
1679443795.5,286047002.3,N
1679443815.4,286047000.0,N
1679443835.2,286047000.9,N
1679443855.1,286046998.7,N
1679443856.0,286046998.7,N
1679443875.8,286046997.7,N
1679443895.6,286046998.6,N
1679443915.5,286046999.4,N
1679443935.3,286046998.3,N
1679443955.2,286046999.8,N
1679443975.9,286047000.9,N
1679443995.7,286046998.1,N
1679444015.6,286046998.7,N
1679444035.4,286046996.6,N
1679444055.2,286046998.9,N
1679444075.1,286047000.6,N
1679444076.0,286047000.6,N
1679444095.8,286047002.7,N
1679444115.7,286047002.6,N
1679444135.5,286047000.6,N
1679444155.3,286046998.5,N
1679444175.2,286046999.3,N
1679444195.0,286046999.5,N
1679444195.9,286046999.5,N
1679444215.8,286046995.0,Y
1679444235.6,286046996.7,P
1679444255.4,286046999.5,N
1679444275.3,286047000.2,N
1679444295.1,286047002.2,N
1679444315.8,286047002.7,N
1679444335.7,286046998.6,N
1679444355.5,286046998.4,N
1679444375.4,286047000.1,N
1679444395.2,286047001.5,N
1679444415.0,286047002.6,N
1679444415.9,286047002.6,N
1679444435.8,286047001.0,N
1679444455.6,286046998.1,N
1679444475.5,286047002.1,N
1679444495.3,286047000.0,N
1679444515.1,286047002.7,N
1679444535.9,286047002.1,N
1679444555.7,286047001.3,N
1679444575.5,286047002.7,N
1679444595.4,286047004.4,N
1679444615.2,286047004.1,N
1679444635.1,286047001.8,N
1679444636.0,286047001.8,N
1679444655.8,286047003.7,N
1679444675.7,286047006.0,Y
1679444695.5,286047001.3,P
1679444715.3,286047002.6,P
1679444735.2,286047000.1,N
1679444755.0,286046999.8,N
1679444755.9,286046999.8,N
1679444775.7,286047000.2,N
1679444795.6,286047002.7,N
1679444815.4,286047001.8,N
1679444835.3,286047001.4,N
1679444855.1,286047004.1,Y
1679444875.8,286047000.4,P
1679444895.7,286047000.7,N
1679444915.5,286047001.0,P
1679444935.4,286046996.5,Y
1679444955.2,286046995.8,P
1679444975.0,286046995.6,N
1679444975.9,286046995.6,N
1679444995.8,286046993.3,Y
1679445015.6,286046999.2,P
1679445035.4,286047001.1,N
1679445055.3,286047002.6,N
1679445075.1,286046999.8,N
1679445095.9,286047002.3,N
1679445115.7,286046999.9,N
1679445135.5,286047002.8,N
1679445155.4,286047002.2,N
1679445175.2,286047002.6,N
1679445195.0,286047001.7,N
1679445195.9,286047001.7,N
1679445215.8,286047002.2,N
1679445235.6,286046998.1,N
1679445255.5,286047001.0,N
1679445275.3,286046999.3,N
1679445295.1,286046996.7,N
1679445315.9,286046998.3,N
1679445335.7,286047000.2,N
1679445355.5,286047000.3,N
1679445375.4,286047002.0,N
1679445395.2,286047002.8,N
1679445415.1,286046999.7,N
1679445416.0,286046999.7,N
1679445435.8,286047002.6,N
1679445455.6,286047000.0,N
1679445475.5,286046998.4,N
1679445495.3,286046996.9,N
1679445515.2,286046998.5,N
1679445535.0,286047000.9,N
1679445535.9,286047000.9,N
1679445555.7,286046998.9,N
1679445575.6,286047000.5,N
1679445595.4,286046999.4,N
1679445615.3,286046998.5,N
1679445635.1,286046998.9,N
1679445636.0,286046998.9,N
1679445655.8,286046998.9,N
1679445675.7,286047000.7,N
1679445695.5,286047000.0,N
1679445715.4,286046999.7,N
1679445735.2,286046999.4,N
1679445755.0,286047001.1,N
1679445755.9,286047001.1,N
1679445775.8,286047001.0,N
1679445795.6,286047000.2,N
1679445815.4,286047000.8,N
1679445835.3,286046998.1,N
1679445855.1,286047000.8,N
1679445875.9,286047000.0,N
1679445895.7,286046998.2,N
1679445915.5,286047001.0,N
1679445935.4,286047001.6,N
1679445955.2,286047003.9,Y
1679445975.1,286047001.6,P
1679445976.0,286047001.6,N
1679445995.8,286047002.3,N
1679446015.7,286047004.1,Y
1679446035.5,286047002.2,P
1679446055.3,286047003.7,P
1679446075.2,286047003.8,P
1679446095.0,286046999.8,N
1679446095.9,286046999.8,N
1679446115.8,286047000.6,N
1679446135.6,286046998.4,N
1679446155.4,286046999.6,N
1679446175.3,286047000.7,N
1679446195.1,286046998.1,N
1679446215.9,286046996.5,N
1679446235.7,286046999.4,N
1679446255.5,286046999.3,N
1679446275.4,286047000.2,N
1679446295.2,286047002.8,N
1679446315.0,286047000.4,N
1679446315.9,286047000.4,N
1679446335.8,286047000.6,N
1679446355.6,286046999.8,N
1679446375.5,286047002.8,N
1679446395.3,286047001.1,N
1679446415.1,286047000.1,N
1679446435.9,286047000.4,N
1679446455.7,286047000.7,N
1679446475.6,286046999.5,N
1679446495.4,286046999.0,N
1679446515.2,286046998.6,N
1679446535.1,286046998.3,N
1679446536.0,286046998.3,N
1679446555.8,286046998.1,N
1679446575.7,286047000.6,N
1679446595.5,286047002.6,N
1679446615.3,286047001.6,N
1679446635.2,286047002.3,N
1679446655.0,286047001.3,N
1679446655.9,286047001.3,N
1679446675.8,286046999.7,N
1679446695.6,286047002.6,N
1679446715.4,286047004.3,N
1679446735.3,286046999.9,N
1679446755.1,286047001.1,N
1679446775.8,286046999.7,N
1679446825.7,286047002.2,E
